Погода в Падстоу

Великобритания     50°32′26″N   4°56′13″W
темп.,
°C
ветер,
м/с
пор.,
м/с
влажн.,
%
обл.,
%
осадки,
мм/ч
давл.,
гПа
погр.,
м
19 сентября, вс
вс1901:00+15зсз3580100 0.0 1014405
04:00+15зюз4684100 0.0 1014385
07:00+15зсз688486 0.3 1015483
10:00+16зсз677940 0.1 1016798
13:00+16сз7873100 0.1 1018917
16:00+16сз68715 0.0 1018930
19:00+15зсз577999 0.1 1019568
22:00+15сз4679100 0.1 1020410
20 сентября, пн
пн2001:00+14с57825 0.3 1021544
04:00+14ссз57822 0.0 1022474
07:00+14ссз67841 0.0 1024452
10:00+15с67808 0.0 1025593
13:00+16с66750 0.0 1026566
16:00+15с66780 0.0 1027511
19:00+15с57826 0.0 1028333
22:00+14с57806 0.0 1029312
21 сентября, вт
вт2101:00+14ссв46765 0.0 1030272
04:00+13ссв34785 0.0 1030177
07:00+13св2279100 0.0 1030110
10:00+15св227094 0.0 1031195
13:00+17с2266100 0.0 1031427
16:00+17сз2269100 0.0 1030302
19:00+15с2276100 0.0 103042
22:00+14юв117766 0.0 103131
22 сентября, ср
ср2201:00+13ю228049 0.0 103064
04:00+13юз1283100 0.0 102991
07:00+13ююз228477 0.0 1028104
10:00+15зюз2380100 0.0 1028294
13:00+16зсз447681 0.0 1027398
16:00+16з4480100 0.0 1026419
19:00+15зсз468999 0.0 1025320
22:00+15зсз4689100 0.0 1025352
23 сентября, чт
чт2301:00+15зсз4692100 0.0 1024277
04:00+15зсз469799 0.0 1023210
07:00+14ссв788650 0.1 1023436
10:00+14с677568 0.0 1024614
13:00+14с556664 0.0 1024607
16:00+14ссз556874 0.0 1022596
19:00+14ссз46715 0.0 1021441
22:00+14сз56794 0.0 1021439